Wetbulb
39.08 32.57 29.70 32.82 33.46 35.09 34.80 33.15 33.11 38.08 42.66 40.84 40.48 40.93 43.05 45.41 43.24 43.60 42.67 44.15 45.40 49.95 53.91 66.79 66.74 66.39 66.09 66.08 66.01 67.46 67.73 68.10 69.15 68.32 67.98 69.12 68.95 69.49 70.91 69.78 70.30 69.89 70.14 71.80
34.32 31.38 37.28 38.13 37.68 34.62 33.20 31.51 31.73 36.76 40.22 39.80 39.75 40.31 43.43 44.53 43.58 43.13 43.39 43.57 44.99 45.21 57.51 66.44 65.88 66.13 65.74 65.55 65.97 66.52 68.16 69.18 69.66 69.85 69.03 69.57 69.41 70.07 71.13 71.67 71.49 70.91 72.37 71.52
35.46 36.40 39.62 37.36 34.64 33.45 32.74 30.54 31.81 33.54 38.74 40.47 39.94 37.35 40.35 44.65 46.18 44.73 44.31 45.04 45.25 45.84 50.42 65.22 66.20 65.43 65.48 64.86 65.09 65.74 66.91 68.14 68.24 68.06 70.16 68.35 69.17 69.05 68.67 68.56 69.39 70.05 70.92 70.27
37.97 41.53 38.56 35.65 33.12 34.11 28.68 36.19 36.14 36.04 35.68 29.56 39.22 28.17 37.51 43.27 42.75 44.64 44.49 43.30 44.68 45.33 48.13 64.51 65.77 65.32 65.09 64.97 66.06 66.65 67.06 67.27 67.34 68.51 68.67 67.23 65.76 65.23 66.68 67.04 68.26 68.19 68.53 67.90
35.37 36.02 35.72 33.88 34.34 36.71 32.43 37.34 36.70 37.34 35.30 33.10 34.49 30.32 38.26 41.54 40.64 43.73 44.87 42.97 44.65 45.13 47.27 63.54 64.65 65.38 65.84 65.84 65.96 66.67 67.34 67.54 65.83 65.31 66.66 66.57 63.58 64.46 66.79 65.50 64.65 64.47 65.41 65.54
38.93 43.14 39.33 37.19 39.01 38.12 39.14 35.18 34.59 34.46 33.70 28.19 32.61 32.81 34.89 37.07 41.91 44.22 45.44 43.40 45.37 45.04 47.35 63.06 64.91 65.93 65.24 63.90 64.61 65.48 66.06 65.97 63.31 63.77 64.26 66.08 64.93 64.06 64.84 63.87 62.61 62.06 60.96 59.96
36.59 37.06 41.04 40.47 34.88 38.57 36.69 29.49 23.14 22.10 26.63 26.18 35.62 33.11 35.29 42.13 44.64 46.12 43.24 43.77 44.40 45.21 55.38 64.64 64.41 65.36 63.46 62.81 63.55 64.00 64.24 64.51 63.67 64.72 63.40 65.57 63.93 64.40 64.42 62.99 62.35 60.17 58.86 58.96
29.96 27.54 37.48 40.69 36.36 33.33 33.43 30.48 23.03 15.68 25.39 26.98 37.62 31.05 36.71 43.24 45.52 45.93 45.32 45.17 45.04 43.91 59.85 64.45 65.45 65.65 65.14 63.77 63.52 64.65 65.55 64.58 65.52 65.30 65.89 66.48 65.18 65.51 64.78 62.34 61.14 59.89 59.77 58.56
31.54 30.91 40.82 40.29 40.49 39.06 32.87 29.23 34.67 31.76 34.12 29.01 35.10 36.82 42.89 43.35 42.57 43.63 44.01 44.24 43.17 46.17 62.15 64.27 65.45 64.93 63.14 63.67 64.36 62.55 61.83 61.37 61.35 61.94 62.32 64.01 65.23 64.19 63.27 60.83 59.56 58.86 58.52 58.28
35.08 30.65 38.40 39.52 40.82 39.91 35.01 37.44 27.41 31.69 24.80 26.92 30.58 32.94 34.00 38.98 39.95 42.75 41.23 41.62 48.96 59.44 63.08 63.70 62.63 61.27 62.22 61.22 60.42 59.85 59.33 58.46 58.95 59.27 59.58 60.16 59.82 59.32 59.51 58.63 56.99 57.11 55.99 52.89
37.23 33.03 32.64 36.31 34.14 32.08 34.20 32.21 33.42 34.20 34.24 26.74 26.54 30.88 45.46 45.73 43.70 39.53 44.34 51.87 59.65 61.45 62.06 62.01 60.78 60.76 59.87 59.22 57.70 56.75 56.55 56.22 56.59 57.04 57.19 57.06 56.79 56.18 55.87 55.86 55.24 53.87 52.82 52.93
38.72 36.44 29.73 32.29 39.43 40.27 37.64 35.21 34.62 31.08 31.48 33.34 30.31 31.20 47.63 47.04 46.62 51.62 54.88 57.77 59.78 61.23 60.87 59.98 58.61 58.31 57.69 56.75 56.47 55.60 55.10 54.63 54.57 54.51 54.35 53.68 53.92 54.80 54.47 52.72 52.74 52.91 51.53 50.41
39.00 35.68 23.46 28.53 33.43 36.88 35.54 37.77 37.76 36.00 37.26 35.07 28.89 33.59 51.99 50.77 51.78 54.28 56.00 58.07 58.78 58.66 57.28 56.42 56.10 55.73 55.40 55.18 55.11 54.22 53.64 53.62 52.74 52.55 52.08 51.11 52.08 51.43 50.91 51.35 51.86 51.48 49.70 47.92
43.66 36.48 32.47 23.17 28.84 33.75 34.20 36.84 37.49 37.97 33.06 35.00 38.18 43.98 48.46 50.24 52.26 54.51 55.96 56.90 56.06 55.68 54.67 54.34 54.00 54.06 53.91 53.69 53.37 52.81 51.69 52.08 52.44 52.06 50.95 49.69 49.77 50.64 50.96 51.31 51.24 50.90 49.17 47.10
41.32 32.93 33.65 35.56 37.11 37.96 37.69 36.65 37.67 37.85 39.20 36.76 42.99 42.88 47.82 51.07 52.73 54.36 54.98 54.23 53.15 52.76 52.81 52.85 52.34 51.89 51.70 51.91 51.51 51.32 50.43 50.43 50.79 49.69 49.03 49.11 50.11 50.51 50.74 50.82 50.61 50.42 49.29 47.33
39.98 33.02 34.63 33.41 38.82 37.96 36.74 39.50 39.89 40.90 40.97 39.07 44.10 44.77 50.51 52.04 52.45 51.91 52.47 51.85 50.45 50.36 51.06 51.50 51.75 51.48 51.53 51.45 50.18 49.58 49.39 49.04 49.30 48.73 49.15 50.02 49.49 49.46 49.02 49.04 48.74 48.77 47.69 46.15
36.61 36.26 33.90 25.01 37.49 36.28 32.32 37.28 38.89 41.08 42.68 42.17 41.55 46.45 48.08 46.69 47.13 47.54 47.89 48.24 47.63 48.00 48.72 48.52 48.82 49.76 50.00 48.66 49.25 46.92 47.12 48.21 49.04 49.43 49.64 49.50 49.28 48.90 48.64 48.95 48.39 47.24 46.05 44.57
38.39 35.64 35.32 28.04 33.89 24.30 37.76 41.00 42.08 42.82 45.25 47.65 46.15 44.91 44.24 43.99 45.00 46.29 47.37 46.66 46.42 46.95 46.85 46.88 47.04 46.96 46.51 46.75 46.49 46.97 47.50 47.52 47.50 47.34 47.54 47.86 47.70 46.98 47.08 47.80 47.93 47.53 45.29 44.14
38.06 39.72 34.11 26.96 30.93 35.90 38.07 37.12 37.39 38.87 43.43 45.97 41.94 42.92 43.30 44.10 44.12 43.39 46.46 46.46 45.96 45.91 45.93 45.70 46.16 45.81 45.56 44.99 46.04 46.22 45.74 45.99 45.91 45.30 45.59 46.40 46.73 46.12 46.21 46.28 47.87 49.76 46.97 43.70
35.97 37.21 33.60 30.18 25.97 22.93 34.71 36.28 38.85 39.93 39.15 45.62 43.51 43.13 43.10 46.30 37.29 39.39 44.63 45.62 45.18 45.52 45.21 44.37 44.19 44.29 43.56 43.56 44.87 44.31 43.56 43.73 43.17 44.13 44.64 45.81 46.02 46.00 45.58 45.94 48.96 49.34 47.51 43.88
27.38 26.15 27.91 31.87 29.32 33.29 35.03 35.56 39.17 35.55 38.82 45.71 45.07 45.63 45.41 42.13 41.78 42.46 43.53 43.18 43.15 42.57 42.37 42.34 41.82 41.09 41.41 43.37 43.66 42.20 42.23 41.43 42.86 44.30 44.33 44.17 44.16 44.39 44.80 44.99 46.59 46.92 46.70 44.06
24.82 23.26 23.75 28.08 29.89 26.03 35.48 36.49 38.89 40.35 47.13 45.28 43.46 42.33 41.24 41.79 42.26 41.98 42.06 41.24 41.05 39.81 40.06 40.17 38.99 38.36 39.34 41.56 41.84 40.54 39.58 40.73 42.17 42.58 42.34 41.07 40.17 41.62 42.12 42.25 43.14 43.68 42.51 40.98
24.41 27.69 26.32 28.07 27.54 33.98 34.90 34.71 37.97 39.75 43.12 42.54 41.83 42.98 42.64 41.71 41.18 40.70 40.03 39.59 39.30 39.00 38.63 39.51 37.79 37.15 37.79 38.76 40.61 38.88 38.07 40.30 40.78 40.50 39.82 38.84 39.91 40.63 40.49 39.99 39.62 38.59 38.21 37.51
28.80 31.91 28.69 31.39 32.59 31.09 36.54 40.55 43.47 43.85 42.18 42.84 42.86 42.35 41.57 39.59 39.90 39.11 39.30 38.79 38.09 38.35 37.44 37.70 37.50 35.98 35.79 37.21 37.99 37.30 38.20 38.93 38.90 38.49 38.42 39.99 39.13 38.76 38.85 38.64 38.24 37.29 35.94 34.81
28.64 30.20 27.50 29.53 30.98 33.61 35.08 39.07 40.87 41.40 41.78 41.46 41.95 41.74 40.92 40.12 39.14 39.34 38.35 37.86 38.05 37.45 38.14 37.79 36.21 35.27 35.11 36.12 36.16 36.84 37.44 37.65 36.60 36.95 38.95 39.55 39.33 37.97 37.11 36.95 36.94 36.43 35.82 35.40
31.55 28.42 26.07 24.78 30.94 31.22 31.94 38.72 40.69 39.10 38.63 39.56 39.27 39.01 40.19 40.04 39.05 39.26 37.97 38.18 38.19 36.96 37.28 36.47 35.94 34.85 34.99 35.47 35.31 35.71 36.47 36.31 35.51 36.15 38.09 38.29 38.66 38.80 38.32 37.79 37.38 37.22 37.18 37.28
MSLP
1008.61 1009.20 1008.98 1008.73 1008.96 1008.68 1008.85 1008.44 1007.42 1006.57 1005.77 1005.08 1002.86 1001.91 1001.37 1001.01 1000.46 1000.24 1000.29 1000.67 1000.85 1001.44 1001.74 1001.93 1002.51 1002.98 1004.02 1004.91 1005.45 1005.71 1006.19 1006.54 1006.98 1007.68 1008.42 1009.05 1009.37 1009.46 1009.50 1009.64 1009.50 1009.99 1010.49 1011.11
1008.97 1007.92 1008.08 1008.50 1008.63 1008.80 1008.56 1008.07 1007.18 1006.88 1005.92 1005.25 1003.51 1001.76 1001.27 1001.07 1000.39 999.76 999.83 1000.88 1000.74 1001.36 1002.35 1002.54 1002.91 1003.45 1004.00 1004.53 1005.37 1006.03 1006.00 1006.22 1006.76 1007.07 1007.69 1008.41 1008.95 1009.32 1009.44 1009.61 1010.06 1010.67 1010.87 1011.11
1007.83 1007.02 1007.54 1008.13 1008.23 1008.33 1007.90 1007.32 1007.25 1006.86 1006.01 1004.77 1003.91 1001.75 1000.90 1000.11 999.79 999.19 999.51 1000.02 1000.39 1000.87 1002.20 1002.92 1003.41 1003.54 1004.21 1004.83 1005.10 1005.37 1005.60 1006.07 1006.53 1007.11 1007.78 1008.44 1009.08 1009.43 1009.71 1010.16 1010.35 1010.89 1010.96 1011.52
1007.20 1006.21 1006.71 1007.39 1007.32 1007.43 1006.96 1006.93 1006.83 1006.91 1006.25 1005.24 1003.61 1001.88 1000.08 999.36 999.42 998.91 999.13 1000.03 1000.27 1000.43 1001.80 1002.51 1003.26 1003.89 1004.09 1004.21 1004.77 1005.25 1005.65 1005.97 1006.50 1007.15 1008.01 1008.46 1009.33 1010.17 1010.95 1010.95 1011.27 1011.19 1011.69 1012.45
1006.55 1006.07 1006.32 1006.39 1005.90 1006.48 1006.09 1006.41 1006.24 1006.66 1006.14 1006.17 1003.50 1003.01 999.13 998.81 999.11 998.49 998.62 999.47 999.74 1000.36 1001.36 1002.27 1002.74 1003.05 1003.49 1004.04 1004.25 1004.79 1005.44 1006.03 1006.90 1007.42 1008.04 1008.93 1009.78 1010.77 1011.21 1011.50 1011.59 1011.95 1012.51 1013.50
1006.06 1005.93 1006.11 1005.73 1004.99 1005.59 1005.88 1006.20 1006.57 1006.76 1007.05 1005.99 1003.11 1001.88 999.17 997.75 997.23 997.19 998.05 999.11 999.39 1000.21 1001.38 1001.83 1002.16 1002.96 1003.61 1004.16 1004.73 1005.35 1005.85 1006.71 1007.28 1007.58 1008.41 1008.99 1009.58 1010.34 1010.93 1011.75 1012.29 1013.69 1013.85 1014.40
1005.52 1004.26 1004.36 1005.13 1004.95 1004.64 1005.20 1005.97 1006.73 1007.14 1006.76 1004.41 1002.00 1001.65 998.51 996.42 995.59 996.09 997.54 998.51 999.23 1000.01 1000.80 1001.65 1002.41 1003.13 1003.91 1004.13 1005.08 1005.79 1006.53 1007.23 1007.83 1008.28 1008.72 1009.13 1009.74 1010.31 1011.24 1012.07 1012.67 1014.16 1014.69 1015.92
1005.65 1003.72 1003.21 1003.89 1004.16 1003.65 1004.48 1005.03 1005.39 1005.49 1004.79 1003.41 1001.17 1000.18 997.35 995.56 995.42 995.70 996.92 997.99 998.91 999.75 1000.50 1001.17 1002.02 1002.48 1003.45 1004.26 1005.47 1006.36 1007.09 1007.46 1007.99 1008.37 1008.92 1009.65 1010.56 1010.93 1011.50 1012.37 1012.63 1013.74 1015.25 1015.89
1006.03 1003.96 1002.60 1002.77 1002.91 1003.56 1004.31 1004.90 1005.65 1005.11 1004.27 1002.07 1000.56 999.03 997.34 995.85 996.11 996.52 997.26 998.15 998.99 999.69 1000.46 1001.35 1002.34 1003.13 1004.21 1004.89 1005.94 1006.95 1007.70 1008.21 1008.65 1009.12 1009.61 1010.18 1010.91 1011.49 1012.04 1012.96 1013.34 1015.29 1016.21 1016.44
1006.27 1004.68 1001.95 1001.71 1002.27 1002.91 1003.21 1004.11 1005.37 1005.25 1004.05 1001.59 1000.58 998.89 997.41 996.83 996.70 996.82 997.79 998.48 999.17 999.93 1000.87 1001.93 1002.93 1003.79 1004.91 1005.95 1006.83 1007.59 1008.43 1009.17 1009.81 1010.18 1010.59 1010.81 1011.10 1011.75 1013.49 1014.60 1015.61 1015.96 1016.41 1016.21
1005.97 1004.87 1002.95 1002.21 1002.00 1002.24 1003.58 1004.05 1004.71 1004.93 1003.66 1001.54 1000.26 998.89 997.94 997.85 997.65 997.59 998.09 998.59 999.24 1000.27 1001.27 1002.49 1003.61 1004.78 1005.73 1006.76 1007.86 1008.63 1009.48 1010.03 1010.57 1011.19 1011.71 1011.95 1012.59 1013.16 1013.93 1015.68 1016.27 1016.32 1015.97 1016.22
1005.73 1004.88 1003.67 1002.71 1001.94 1001.68 1002.47 1002.83 1003.50 1004.05 1003.44 1001.35 999.53 999.10 997.91 997.57 997.49 997.33 998.44 999.22 999.86 1000.43 1002.12 1003.15 1004.13 1005.25 1006.69 1007.85 1008.67 1009.34 1010.23 1010.74 1011.36 1011.85 1012.73 1013.33 1013.99 1014.63 1015.08 1015.77 1015.73 1015.55 1015.99 1016.41
1005.59 1004.75 1003.97 1003.17 1002.36 1001.89 1001.97 1002.35 1002.83 1003.26 1002.93 1001.14 999.91 999.17 997.79 997.45 997.75 997.99 998.67 1000.07 1001.00 1002.02 1003.36 1004.24 1005.15 1006.53 1007.63 1008.79 1009.50 1010.29 1011.03 1011.42 1011.93 1012.44 1013.02 1014.00 1014.88 1015.03 1015.49 1015.89 1016.03 1016.50 1016.89 1017.39
1005.11 1004.73 1004.05 1003.45 1002.55 1001.98 1001.81 1002.12 1003.06 1002.83 1002.50 1001.41 999.79 999.08 998.83 998.73 998.61 999.26 999.74 1000.84 1002.28 1003.30 1003.95 1005.00 1006.39 1007.67 1008.71 1009.52 1010.47 1011.23 1011.85 1012.04 1012.50 1012.95 1013.55 1014.37 1015.05 1015.39 1015.91 1016.29 1016.85 1017.12 1017.64 1018.23
1004.67 1004.47 1003.95 1002.90 1002.28 1001.73 1001.49 1001.67 1002.25 1001.80 1002.11 1001.61 1000.22 999.88 999.77 999.72 999.62 1000.37 1000.98 1002.02 1003.27 1004.22 1005.04 1006.28 1007.26 1008.54 1009.65 1010.47 1011.39 1012.05 1012.87 1013.00 1013.22 1013.85 1014.53 1015.15 1015.61 1016.06 1016.50 1017.05 1017.51 1017.95 1018.62 1019.31
1005.11 1004.46 1003.84 1002.63 1001.77 1001.32 1001.59 1002.25 1002.38 1002.61 1002.08 1001.85 1001.01 1000.45 1000.45 1000.45 1001.07 1002.15 1003.08 1003.21 1004.22 1005.32 1006.51 1007.53 1008.62 1009.57 1010.83 1011.33 1012.56 1013.35 1013.88 1014.25 1014.29 1014.56 1015.21 1015.86 1016.47 1016.77 1017.14 1017.66 1018.34 1018.87 1019.41 1019.55
1005.33 1004.59 1003.98 1003.61 1002.16 1002.29 1003.51 1003.14 1002.91 1002.67 1001.96 1001.41 1000.99 1001.73 1001.63 1002.36 1003.12 1004.31 1004.86 1005.13 1005.34 1006.56 1007.71 1008.89 1009.91 1010.91 1011.61 1012.78 1013.95 1014.36 1014.53 1015.21 1015.42 1015.58 1015.98 1016.56 1017.12 1017.64 1018.05 1018.36 1018.77 1019.31 1019.63 1019.81
1005.29 1005.13 1004.54 1004.21 1003.63 1003.73 1004.04 1004.51 1003.43 1002.22 1001.22 1001.37 1001.77 1002.83 1003.51 1004.37 1005.61 1006.52 1007.05 1006.69 1006.82 1007.67 1009.22 1010.31 1011.16 1012.27 1013.21 1013.89 1014.39 1014.83 1015.46 1016.00 1016.48 1016.75 1016.97 1017.32 1017.67 1018.07 1018.38 1018.75 1019.25 1019.55 1019.88 1020.58
1005.99 1005.33 1005.11 1005.09 1005.12 1004.98 1004.72 1005.34 1005.23 1004.00 1003.09 1002.90 1003.66 1004.70 1005.35 1006.04 1006.76 1008.65 1009.12 1009.16 1008.60 1009.49 1010.79 1011.90 1012.95 1013.55 1014.25 1014.82 1015.40 1015.73 1016.45 1017.08 1017.58 1017.84 1017.77 1017.82 1017.99 1018.40 1018.82 1019.23 1019.61 1020.06 1020.66 1021.32
1006.53 1005.93 1005.81 1006.19 1006.47 1006.67 1007.22 1007.38 1006.93 1005.95 1005.09 1005.13 1004.88 1005.79 1006.16 1006.51 1008.36 1011.17 1011.14 1010.75 1010.61 1011.18 1012.35 1013.37 1014.17 1014.66 1015.26 1016.05 1016.29 1016.78 1017.70 1018.09 1018.33 1018.33 1018.28 1018.33 1018.59 1019.03 1019.59 1019.79 1020.09 1020.58 1021.12 1021.74
1009.48 1008.86 1008.56 1007.85 1007.97 1008.35 1008.17 1008.27 1007.92 1007.39 1006.37 1005.87 1006.10 1006.72 1007.32 1008.51 1010.03 1011.79 1012.44 1012.45 1012.48 1012.98 1013.94 1014.67 1015.22 1016.00 1016.58 1017.04 1017.30 1018.11 1018.65 1019.05 1019.12 1018.80 1018.87 1019.21 1019.58 1019.93 1020.21 1020.33 1020.57 1020.99 1021.47 1021.97
1012.51 1012.07 1011.25 1010.23 1009.76 1010.29 1009.43 1008.57 1007.70 1008.18 1006.69 1006.75 1007.55 1007.80 1008.67 1009.83 1011.28 1012.64 1013.54 1013.96 1014.12 1014.67 1015.63 1016.19 1016.53 1017.67 1017.97 1018.21 1018.41 1019.24 1019.67 1019.89 1019.70 1019.63 1019.93 1020.28 1020.47 1020.64 1020.86 1021.01 1021.32 1021.63 1022.00 1022.44
1014.04 1014.28 1013.70 1012.87 1012.51 1011.75 1010.86 1009.67 1008.69 1008.49 1007.95 1008.33 1008.30 1009.55 1009.53 1011.26 1012.87 1013.37 1014.78 1015.69 1015.95 1015.95 1016.80 1017.70 1018.02 1018.59 1019.20 1019.43 1019.79 1020.20 1020.73 1020.49 1020.54 1020.64 1021.02 1021.25 1021.41 1021.55 1021.75 1021.84 1022.09 1022.42 1022.76 1023.14
1015.01 1014.99 1014.50 1013.82 1013.37 1012.43 1010.83 1009.71 1008.70 1008.61 1009.08 1009.77 1010.30 1010.61 1011.87 1012.13 1013.75 1014.89 1015.99 1016.11 1016.95 1017.17 1017.79 1018.48 1018.73 1019.38 1020.29 1020.57 1020.82 1021.08 1021.22 1021.32 1021.31 1021.57 1021.82 1021.99 1022.27 1022.57 1022.59 1022.76 1022.88 1023.05 1023.29 1023.41
1016.54 1015.94 1015.42 1015.10 1014.39 1013.22 1012.55 1012.04 1011.33 1010.73 1010.77 1010.91 1011.81 1012.30 1013.05 1013.39 1014.86 1016.14 1016.89 1017.49 1018.10 1018.01 1018.83 1019.19 1019.59 1020.27 1020.99 1021.45 1021.66 1021.70 1021.84 1021.79 1022.25 1022.39 1022.72 1022.94 1023.07 1023.15 1023.29 1023.53 1023.64 1023.64 1023.71 1023.77
1017.13 1017.12 1016.79 1016.80 1016.22 1015.77 1014.92 1013.98 1013.39 1012.30 1012.61 1012.87 1013.03 1013.87 1014.70 1014.83 1015.56 1016.39 1017.39 1018.59 1018.67 1018.47 1019.27 1019.69 1020.31 1020.81 1021.56 1021.81 1022.16 1022.44 1022.50 1022.56 1022.87 1022.95 1023.29 1023.51 1023.67 1023.63 1023.63 1023.81 1023.99 1023.88 1023.77 1023.89
Wind_Speed
4 4 11 15 10 11 9 14 15 4 8 7 25 16 15 11 7 9 9 8 9 12 9 13 15 16 14 13 15 15 14 11 10 6 6 4 6 5 5 7 10 10 9 6
1 16 15 8 10 11 13 15 15 14 15 13 16 18 13 9 9 9 10 8 10 7 10 13 15 15 16 17 13 11 12 12 8 7 4 4 3 2 1 2 2 3 4 8
13 11 5 15 14 16 16 19 14 13 11 15 13 13 8 10 14 8 7 9 8 14 14 15 15 16 13 14 14 15 13 11 9 8 6 4 4 3 2 3 5 2 8 9
14 15 20 19 15 15 18 15 15 14 9 8 2 5 10 18 10 14 10 10 10 10 10 15 16 13 14 15 12 12 10 10 9 8 6 5 3 4 3 6 5 7 12 10
8 5 13 16 21 16 13 14 11 9 8 11 18 4 12 11 13 17 14 10 11 11 14 18 18 18 17 13 15 13 10 9 7 8 7 6 9 5 5 6 9 10 10 6
21 16 6 9 15 16 10 11 5 1 3 6 14 8 9 9 21 20 12 10 13 9 11 16 15 14 12 7 6 6 7 5 6 8 7 7 10 6 6 7 9 7 8 4
11 19 16 19 3 8 15 10 4 5 7 6 6 7 13 16 16 18 12 13 10 10 12 16 17 15 11 11 8 5 5 6 8 7 7 6 6 5 9 6 4 9 7 2
5 6 11 11 15 7 9 12 6 8 8 6 8 8 9 11 9 10 11 12 9 10 13 17 17 16 15 12 9 9 7 8 7 7 7 5 4 5 9 5 7 7 3 1
5 6 5 18 12 10 6 10 5 5 8 4 5 6 9 4 7 8 11 10 10 11 15 18 17 12 10 12 13 13 13 11 10 10 10 12 12 9 6 8 11 7 4 3
4 7 8 7 14 12 9 8 4 3 6 7 5 4 5 6 9 11 9 11 9 14 17 18 15 17 14 14 14 16 15 13 10 11 10 9 13 16 12 10 8 8 5 5
7 3 5 10 5 7 9 5 3 2 4 3 7 5 3 5 4 11 9 14 18 19 20 18 17 16 16 16 15 16 15 15 13 11 12 13 12 13 13 9 7 7 8 9
3 3 3 4 7 12 7 8 6 4 3 5 3 4 4 7 6 15 16 17 17 21 19 19 20 20 17 16 15 15 14 15 12 13 12 14 13 11 10 8 7 10 11 10
3 2 2 6 7 5 5 12 2 2 9 2 2 3 6 9 14 17 23 19 19 20 20 19 20 18 17 16 15 13 13 14 13 13 13 12 11 11 11 10 10 11 11 10
9 2 3 6 5 5 4 10 8 6 2 6 3 8 8 11 17 17 22 22 18 20 21 21 20 18 16 16 14 13 12 13 13 13 13 12 10 11 11 10 10 10 9 9
4 3 5 7 9 4 4 16 10 4 3 4 5 9 4 12 16 18 19 23 22 21 22 20 20 18 17 16 14 13 10 11 12 13 12 11 10 10 10 10 10 9 9 7
4 3 3 4 5 4 14 12 11 6 6 7 4 10 7 18 19 18 17 23 23 22 22 21 20 20 17 16 13 11 10 10 11 13 12 11 10 10 9 9 8 8 7 7
3 3 2 4 8 12 5 5 1 2 2 9 3 7 16 20 18 15 15 19 25 23 22 21 19 17 15 14 11 11 11 10 10 12 12 11 9 8 7 7 7 7 7 7
1 1 1 3 4 4 3 4 8 3 7 13 17 17 22 21 19 16 12 19 24 24 21 18 16 15 14 13 13 13 12 11 11 10 10 8 8 8 7 7 6 7 6 7
7 2 2 5 2 4 5 9 9 10 6 14 23 18 22 23 24 18 13 14 21 21 18 16 14 14 13 13 12 14 12 10 10 8 8 7 7 8 7 7 6 6 7 5
12 8 3 3 5 2 3 8 12 8 4 16 20 21 21 17 16 6 9 15 20 21 17 16 15 14 14 10 12 14 10 10 8 7 7 7 7 7 7 5 6 4 6 6
8 7 6 4 3 3 6 16 7 4 2 12 14 16 14 11 11 13 11 15 16 18 17 15 15 13 10 10 13 12 10 9 6 9 9 9 7 7 6 6 4 6 6 6
5 5 5 5 4 2 14 14 2 3 7 14 10 15 23 23 20 16 14 14 16 18 16 15 16 12 10 10 13 11 10 5 8 9 9 9 8 6 5 8 6 7 7 6
3 4 3 3 2 9 16 19 16 10 11 14 21 18 23 22 19 17 14 12 13 16 14 12 14 14 11 10 10 11 4 7 8 9 8 7 7 8 7 7 7 6 6 4
6 4 2 3 5 15 16 15 14 13 17 16 16 20 18 25 18 19 14 11 11 13 13 11 14 15 11 9 10 7 7 6 8 8 7 7 7 7 7 6 5 4 4 4
3 7 6 3 6 10 16 14 10 17 17 21 18 17 17 20 19 14 13 12 10 12 11 11 12 11 10 8 8 7 6 7 8 7 6 6 5 5 6 5 3 4 4 3
4 4 4 3 7 3 6 7 11 19 17 17 20 19 15 17 18 15 13 9 10 13 12 12 12 12 9 8 7 6 6 6 6 6 5 4 3 3 3 3 3 5 4 3
Wind_Direction
216 170 217 216 208 232 265 261 268 278 271 253 241 248 242 267 251 227 200 209 158 175 154 160 152 159 154 160 161 172 170 182 163 166 160 162 187 194 191 189 193 181 186 166
199 228 239 234 228 238 239 250 257 268 270 276 281 258 234 212 237 216 194 191 176 145 135 152 153 154 161 166 171 179 182 173 175 172 158 140 140 180 234 157 89 232 134 113
241 241 222 230 240 236 234 236 235 256 273 279 278 270 214 210 220 231 194 168 194 169 148 151 161 166 156 165 176 182 183 175 164 136 122 88 88 52 35 46 72 74 76 75
264 279 232 236 243 224 234 233 222 245 240 243 226 275 209 207 212 228 199 166 185 200 130 151 162 165 174 181 183 186 180 176 172 144 113 130 106 91 42 67 76 82 98 91
246 238 207 229 226 214 238 224 202 247 245 323 274 234 232 171 210 219 216 173 194 184 143 159 170 175 185 173 185 185 172 182 123 114 116 106 97 101 103 92 81 45 60 51
255 253 239 252 230 213 209 178 152 189 85 240 238 198 221 182 198 209 193 168 186 178 134 169 167 161 170 162 169 172 182 137 96 99 121 123 134 143 99 100 85 75 48 24
278 247 218 217 268 193 190 152 156 210 199 241 212 215 254 212 203 202 166 175 176 158 143 147 156 161 168 159 154 157 111 92 107 111 139 155 177 143 98 99 102 110 98 224
290 307 189 185 217 175 185 163 187 172 186 213 153 206 253 210 186 174 149 167 155 148 152 154 161 160 174 148 111 93 97 82 80 86 79 92 121 103 99 125 111 86 72 51
286 262 152 176 183 191 182 176 136 78 267 152 144 260 298 152 157 158 155 151 165 146 150 150 155 145 127 116 109 103 91 74 70 80 91 101 98 75 110 108 100 121 153 194
272 278 288 182 170 197 174 137 103 109 220 159 206 194 188 161 188 174 137 146 136 131 135 142 128 121 103 101 95 90 88 87 81 83 88 110 112 120 107 101 127 140 135 111
244 238 14 128 210 158 154 132 103 9 258 216 153 237 98 271 289 137 146 138 134 133 137 130 118 109 106 98 98 98 100 99 89 86 94 94 97 100 105 119 140 125 101 95
262 306 290 183 303 152 177 157 143 175 206 245 141 248 334 252 215 135 131 130 127 124 129 123 117 112 106 104 103 103 102 100 97 95 98 98 96 100 101 100 86 84 83 75
305 272 6 349 355 0 165 162 117 11 295 8 117 268 356 77 121 131 122 121 121 121 117 112 105 105 106 106 99 99 100 99 98 100 96 87 94 98 90 89 83 84 86 76
226 253 244 198 213 153 149 155 167 190 282 312 348 104 94 118 121 123 120 119 118 120 114 109 106 106 102 100 103 100 97 100 98 93 86 82 79 86 89 89 85 85 83 82
186 249 211 252 239 196 148 143 193 253 227 285 53 100 63 125 120 121 117 117 117 112 108 111 107 104 100 99 95 93 92 94 98 92 89 86 82 84 86 86 82 78 83 90
315 272 20 295 267 198 136 118 80 247 137 301 247 70 72 93 96 105 122 120 112 110 110 107 106 106 107 103 102 104 99 84 93 94 95 92 85 80 77 78 84 87 87 80
249 311 7 5 93 102 89 6 166 243 157 225 109 109 89 90 84 94 111 112 112 109 107 106 103 104 101 103 111 100 92 91 87 94 96 93 90 86 86 96 94 91 88 81
10 252 45 83 26 45 54 36 288 111 21 110 88 88 90 90 84 81 90 111 105 102 101 97 95 96 95 100 93 93 91 89 89 89 93 96 98 93 83 84 99 92 78 80
350 266 57 98 74 124 26 19 11 6 47 85 101 104 103 102 91 61 70 84 97 97 94 95 98 99 95 91 96 93 87 88 89 88 88 86 88 84 81 80 101 100 106 90
6 10 125 85 77 130 20 3 356 328 122 138 124 131 132 126 93 95 88 97 95 95 97 99 93 89 82 75 87 85 82 84 77 70 67 63 65 73 75 87 97 95 96 100
342 356 28 32 122 129 24 332 295 108 188 142 145 137 115 95 103 112 102 93 92 94 97 94 84 82 77 86 90 84 83 69 67 74 71 64 57 63 70 70 62 94 102 100
17 331 9 332 44 62 355 332 296 61 118 123 110 113 109 109 102 96 93 93 93 94 88 84 86 74 59 71 88 83 74 60 64 66 65 61 53 53 53 73 62 76 86 80
24 10 334 10 307 297 290 237 262 267 125 112 112 117 115 111 115 106 86 88 89 91 90 89 91 84 65 63 80 88 61 72 72 69 62 61 61 60 54 68 69 71 63 70
346 358 4 279 343 333 3 25 59 92 97 100 101 111 109 111 104 103 109 104 100 95 93 93 88 81 75 69 73 77 75 75 78 76 65 67 69 68 64 64 61 76 73 67
307 323 318 11 336 335 15 12 58 85 87 92 84 92 106 109 104 106 104 99 102 97 97 96 93 92 86 81 72 68 71 81 78 71 70 67 72 77 79 64 57 85 63 81
350 349 2 35 325 315 329 0 60 79 82 86 98 94 84 94 99 99 94 97 102 99 98 90 86 86 82 79 73 67 71 82 91 83 73 68 74 77 83 89 79 63 71 48